Retour au catalogue

STARLINK-36958

ActifCommunicationsSSO
NORAD 68163·PAYLOAD·🇺🇸 United States

Lancé Mar 13, 2026 depuis Vandenberg Space Force Base

Loading…

Prochains Passages (prochaines 24 heures)

TLE

FraisSource: CelesTrak SupGP

Époque: Sep 14, 2026, 21:30 UTC

1 68163C 26049X   26257.89631944  .00035568  00000+0  11044-2 0  2576
2 68163  97.2840 277.8584 0001206  96.5507  34.6883 15.33414326    13

Suivez STARLINK-36958 en temps réel avec AllMySat

Download on the App Store